Weather History for KP58 - February, 2013

Change the Weather History Date:

Tuesday, February 5, 2013

  Actual Average Record
Temperature  
Mean Temperature 16 °F -  
Max Temperature 26 °F 29 °F 43 °F (2005)
Min Temperature 7 °F 18 °F -6 °F (2009)
Degree Days  
Heating Degree Days 48    
Moisture  
Dew Point 10 °F    
Average Humidity 73    
Maximum Humidity 84    
Minimum Humidity 57    
Precipitation  
Precipitation 0.03 in - - ()
Sea Level Pressure  
Sea Level Pressure 29.89 in    
Wind  
Wind Speed 7 mph (SW)    
Max Wind Speed 14 mph    
Max Gust Speed 25 mph    
Averages and records for this station are not official NWS values.
T = Trace of Precipitation, MM = Missing Value Source: NWS Daily Summary

Daily Weather History Graph

Daily Weather History Graph

Search for Another Location

Airport or City:

Trip Planner

Search our weather history database for the weather conditions in past years. The results will help you decide how hot, cold, wet, or windy it might be!

Date:

Astronomy

Feb. 05, 2013 Rise Set
Actual Time 7:43 AM EST 5:47 PM EST
Civil Twilight 7:13 AM EST 6:17 PM EST
Nautical Twilight 6:38 AM EST 6:52 PM EST
Astronomical Twilight 6:05 AM EST 7:25 PM EST
Moon 3:28 AM EST (2/5) 12:59 PM EST (2/5)
Length of Visible Light 11h 04m
Length of Day
10h 03m
Waning Crescent, 27% of the Moon is Illuminated
Feb 5
Waning Crescent
Feb 10
New
Feb 17
First Quarter
Feb 25
Full
Mar 4
Last Quarter

Hourly Weather History & Observations

Time (EST) Temp. Windchill Dew Point Humidity Pressure Visibility Wind Dir Wind Speed Gust Speed Precip Events Conditions
12:51 AM 14.0 °F 5.1 °F 1.9 °F 59% 29.96 in - SW 5.8 mph - N/A   Unknown
1:51 AM 10.0 °F 1.8 °F 1.9 °F 70% 29.95 in - SW 4.6 mph - N/A   Unknown
2:51 AM 10.0 °F 0.4 °F 3.0 °F 73% 29.95 in - SW 5.8 mph - N/A   Unknown
3:51 AM 10.0 °F 0.4 °F 3.9 °F 76% 29.94 in - SW 5.8 mph - N/A   Unknown
4:51 AM 9.0 °F -0.9 °F 3.9 °F 80% 29.94 in - SW 5.8 mph - N/A   Unknown
5:51 AM 8.1 °F -2.0 °F 3.0 °F 80% 29.93 in - SW 5.8 mph - N/A   Unknown
6:51 AM 7.0 °F -3.3 °F 3.0 °F 84% 29.94 in - SW 5.8 mph - N/A   Unknown
7:51 AM 8.1 °F -2.0 °F 3.9 °F 83% 29.94 in - SW 5.8 mph - N/A   Unknown
8:51 AM 10.9 °F 4.7 °F 6.1 °F 81% 29.94 in - SW 3.5 mph - N/A   Unknown
9:51 AM 12.9 °F 5.2 °F 6.1 °F 74% 29.92 in - SSW 4.6 mph - N/A   Unknown
10:51 AM 17.1 °F 6.6 °F 6.1 °F 62% 29.91 in - SSW 8.1 mph - N/A   Unknown
11:51 AM 19.9 °F 10.1 °F 7.0 °F 57% 29.88 in - SSW 8.1 mph - N/A   Unknown
12:51 PM 19.9 °F 10.1 °F 9.0 °F 62% 29.85 in - SW 8.1 mph - N/A   Unknown
1:51 PM 21.9 °F 13.4 °F 10.9 °F 63% 29.83 in - Variable 6.9 mph - N/A   Unknown
2:51 PM 23.0 °F 13.1 °F 14.0 °F 68% 29.80 in - SSW 9.2 mph 17.3 mph N/A   Unknown
3:51 PM 23.0 °F 17.0 °F 18.0 °F 81% 29.79 in - Variable 4.6 mph - 0.02 in   Unknown
4:51 PM 23.0 °F 13.9 °F 17.1 °F 78% 29.79 in - South 8.1 mph - N/A   Unknown
5:51 PM 24.1 °F 16.0 °F 18.0 °F 77% 29.81 in - Variable 6.9 mph - N/A   Unknown
6:51 PM 25.0 °F 17.1 °F 18.0 °F 75% 29.82 in - WSW 6.9 mph - N/A   Unknown
7:51 PM 26.1 °F 18.4 °F 19.0 °F 75% 29.84 in - WSW 6.9 mph - N/A   Unknown
8:51 PM 25.0 °F 17.1 °F 19.9 °F 81% 29.86 in - WNW 6.9 mph 19.6 mph 0.01 in   Unknown
9:51 PM 24.1 °F 12.0 °F 16.0 °F 71% 29.89 in - WNW 13.8 mph 25.3 mph N/A   Unknown
10:51 PM 21.9 °F 9.2 °F 14.0 °F 72% 29.93 in - NW 13.8 mph 23.0 mph N/A   Unknown
11:51 PM 21.9 °F 9.8 °F 14.0 °F 72% 29.94 in - NW 12.7 mph 23.0 mph N/A   Unknown